Weather History for New Ulm, MN

Change the Weather History Date:

Sunday, December 1, 2013

  Actual Average Record
Temperature  
Mean Temperature 27 °F -  
Max Temperature 33 °F 32 °F 68 °F (1998)
Min Temperature 21 °F 17 °F -9 °F (2014)
Degree Days  
Heating Degree Days 38    
Moisture  
Dew Point 21 °F    
Average Humidity 80    
Maximum Humidity 93    
Minimum Humidity 65    
Precipitation  
Precipitation 0.00 in - - ()
Sea Level Pressure  
Sea Level Pressure 30.08 in    
Wind  
Wind Speed 4 mph (ENE)    
Max Wind Speed 9 mph    
Max Gust Speed -    
Visibility 10 miles    
Events      
Averages and records for this station are not official NWS values.
T = Trace of Precipitation, MM = Missing Value Source: NWS Daily Summary

Daily Weather History Graph

Daily Weather History Graph

Search for Another Location

Airport:

Trip Planner

Search our weather history database for the weather conditions in past years. The results will help you decide how hot, cold, wet, or windy it might be!

Date:

Astronomy

Dec. 01, 2013 Rise Set
Actual Time 7:34 AM CST 4:40 PM CST
Civil Twilight 7:01 AM CST 5:12 PM CST
Nautical Twilight 6:25 AM CST 5:48 PM CST
Astronomical Twilight 5:50 AM CST 6:23 PM CST
Moon 5:50 AM CST (12/1) 3:53 PM CST (12/1)
Length of Visible Light 10h 11m
Length of Day
9h 06m
Waning Crescent, 2% of the Moon is Illuminated
Dec 1
Waning Crescent
Dec 2
New
Dec 9
First Quarter
Dec 17
Full
Dec 25
Last Quarter

Hourly Weather History & Observations

Time (CST) Temp. Windchill Dew Point Humidity Pressure Visibility Wind Dir Wind Speed Gust Speed Precip Events Conditions
12:13 AM 26.6 °F 17.5 °F 21.2 °F 80% 30.17 in 10.0 mi NW 9.2 mph - N/A   Clear
12:32 AM 24.8 °F 15.3 °F 21.2 °F 86% 30.17 in 10.0 mi NNW 9.2 mph - N/A   Clear
12:53 AM 24.8 °F 16.1 °F 21.2 °F 86% 30.17 in 10.0 mi NNW 8.1 mph - N/A   Scattered Clouds
1:13 AM 24.8 °F 17.9 °F 19.4 °F 80% 30.16 in 10.0 mi North 5.8 mph - N/A   Scattered Clouds
1:32 AM 23.0 °F 17.0 °F 19.4 °F 86% 30.15 in 10.0 mi North 4.6 mph - N/A   Clear
1:53 AM 21.2 °F - 19.4 °F 93% 30.16 in 10.0 mi Calm Calm - N/A   Clear
2:13 AM 21.2 °F 14.9 °F 17.6 °F 86% 30.17 in 10.0 mi WNW 4.6 mph - N/A   Clear
2:32 AM 21.2 °F 13.6 °F 19.4 °F 93% 30.17 in 10.0 mi NW 5.8 mph - N/A   Scattered Clouds
2:53 AM 23.0 °F 17.0 °F 19.4 °F 86% 30.17 in 10.0 mi North 4.6 mph - N/A   Mostly Cloudy
3:13 AM 23.0 °F 17.0 °F 19.4 °F 86% 30.16 in 10.0 mi NNW 4.6 mph - N/A   Mostly Cloudy
3:32 AM 23.0 °F 15.8 °F 19.4 °F 86% 30.17 in 10.0 mi NW 5.8 mph - N/A   Overcast
3:53 AM 23.0 °F 14.7 °F 19.4 °F 86% 30.17 in 10.0 mi NNW 6.9 mph - N/A   Overcast
4:13 AM 23.0 °F 17.0 °F 19.4 °F 86% 30.16 in 10.0 mi NNW 4.6 mph - N/A   Overcast
4:32 AM 23.0 °F 18.4 °F 19.4 °F 86% 30.16 in 10.0 mi NNW 3.5 mph - N/A   Overcast
4:53 AM 23.0 °F - 19.4 °F 86% 30.16 in 10.0 mi Calm Calm - N/A   Overcast
5:13 AM 23.0 °F 18.4 °F 19.4 °F 86% 30.16 in 10.0 mi North 3.5 mph - N/A   Overcast
5:32 AM 23.0 °F 17.0 °F 19.4 °F 86% 30.18 in 10.0 mi WNW 4.6 mph - N/A   Overcast
5:53 AM 23.0 °F 15.8 °F 19.4 °F 86% 30.19 in 10.0 mi West 5.8 mph - N/A   Overcast
6:13 AM 23.0 °F 15.8 °F 19.4 °F 86% 30.18 in 10.0 mi NW 5.8 mph - N/A   Overcast
6:32 AM 23.0 °F 18.4 °F 19.4 °F 86% 30.18 in 10.0 mi NW 3.5 mph - N/A   Overcast
6:53 AM 23.0 °F 18.4 °F 19.4 °F 86% 30.16 in 10.0 mi NNE 3.5 mph - N/A   Overcast
7:13 AM 24.8 °F - 19.4 °F 80% 30.16 in 10.0 mi Calm Calm - N/A   Overcast
7:32 AM 24.8 °F - 19.4 °F 80% 30.16 in 10.0 mi Calm Calm - N/A   Overcast
7:53 AM 24.8 °F - 19.4 °F 80% 30.16 in 10.0 mi Calm Calm - N/A   Overcast
8:13 AM 24.8 °F - 19.4 °F 80% 30.16 in 10.0 mi Calm Calm - N/A   Overcast
8:32 AM 24.8 °F - 21.2 °F 86% 30.17 in 10.0 mi Calm Calm - N/A   Overcast
8:53 AM 24.8 °F - 21.2 °F 86% 30.18 in 10.0 mi Calm Calm - N/A   Mostly Cloudy
9:13 AM 24.8 °F - 21.2 °F 86% 30.18 in 10.0 mi Calm Calm - N/A   Mostly Cloudy
9:32 AM 24.8 °F - 21.2 °F 86% 30.16 in 10.0 mi Calm Calm - N/A   Mostly Cloudy
9:53 AM 24.8 °F - 21.2 °F 86% 30.16 in 10.0 mi Calm Calm - N/A   Scattered Clouds
10:13 AM 26.6 °F - 21.2 °F 80% 30.17 in 10.0 mi Calm Calm - N/A   Mostly Cloudy
10:32 AM 26.6 °F - 21.2 °F 80% 30.17 in 10.0 mi Calm Calm - N/A   Mostly Cloudy
10:53 AM 26.6 °F - 21.2 °F 80% 30.16 in 10.0 mi Calm Calm - N/A   Mostly Cloudy
11:13 AM 26.6 °F - 21.2 °F 80% 30.15 in 10.0 mi Calm Calm - N/A   Scattered Clouds
11:32 AM 28.4 °F - 21.2 °F 74% 30.13 in 10.0 mi Calm Calm - N/A   Scattered Clouds
11:53 AM 28.4 °F - 21.2 °F 74% 30.12 in 10.0 mi Calm Calm - N/A   Scattered Clouds
12:13 PM 28.4 °F - 21.2 °F 74% 30.11 in 10.0 mi Calm Calm - N/A   Scattered Clouds
12:33 PM 28.4 °F - 21.2 °F 74% 30.11 in 10.0 mi Calm Calm - N/A   Scattered Clouds
12:52 PM 28.4 °F - 21.2 °F 74% 30.10 in 10.0 mi Calm Calm - N/A   Scattered Clouds
1:13 PM 30.2 °F - 23.0 °F 75% 30.08 in 10.0 mi Calm Calm - N/A   Scattered Clouds
1:33 PM 30.2 °F 26.7 °F 23.0 °F 75% 30.06 in 10.0 mi East 3.5 mph - N/A   Scattered Clouds
1:52 PM 32.0 °F - 23.0 °F 69% 30.05 in 10.0 mi Calm Calm - N/A   Scattered Clouds
2:13 PM 33.8 °F 30.8 °F 23.0 °F 65% 30.04 in 10.0 mi ESE 3.5 mph - N/A   Scattered Clouds
2:33 PM 32.0 °F 28.7 °F 23.0 °F 69% 30.03 in 10.0 mi ESE 3.5 mph - N/A   Scattered Clouds
2:52 PM 32.0 °F - 23.0 °F 69% 30.04 in 10.0 mi Calm Calm - N/A   Scattered Clouds
3:13 PM 33.8 °F - 23.0 °F 65% 30.03 in 10.0 mi Calm Calm - N/A   Mostly Cloudy
3:33 PM 33.8 °F 30.8 °F 24.8 °F 70% 30.03 in 10.0 mi SE 3.5 mph - N/A   Scattered Clouds
3:52 PM 33.8 °F - 23.0 °F 65% 30.03 in 10.0 mi Calm Calm - N/A   Mostly Cloudy
4:13 PM 32.0 °F 27.5 °F 23.0 °F 69% 30.02 in 10.0 mi SE 4.6 mph - N/A   Mostly Cloudy
4:33 PM 32.0 °F 28.7 °F 23.0 °F 69% 30.01 in 10.0 mi SE 3.5 mph - N/A   Mostly Cloudy
4:52 PM 32.0 °F 28.7 °F 23.0 °F 69% 30.01 in 10.0 mi East 3.5 mph - N/A   Mostly Cloudy
5:13 PM 32.0 °F - 23.0 °F 69% 30.01 in 10.0 mi Calm Calm - N/A   Overcast
5:33 PM 28.4 °F 22.2 °F 21.2 °F 74% 30.00 in 10.0 mi ESE 5.8 mph - N/A   Unknown
5:52 PM 30.2 °F 26.7 °F 23.0 °F 75% 30.00 in 10.0 mi ESE 3.5 mph - N/A   Mostly Cloudy
6:13 PM 28.4 °F - 23.0 °F 80% 30.00 in 10.0 mi Calm Calm - N/A   Overcast
6:33 PM 30.2 °F 26.7 °F 24.8 °F 80% 29.99 in 10.0 mi ESE 3.5 mph - N/A   Unknown
6:52 PM 30.2 °F 25.4 °F 23.0 °F 75% 29.97 in 10.0 mi SE 4.6 mph - N/A   Mostly Cloudy
7:13 PM 28.4 °F 22.2 °F 23.0 °F 80% 29.96 in 10.0 mi SE 5.8 mph - N/A   Scattered Clouds
7:33 PM 26.6 °F 20.0 °F 21.2 °F 80% 29.95 in 10.0 mi SE 5.8 mph - N/A   Clear
7:52 PM 26.6 °F 21.2 °F 21.2 °F 80% 29.94 in 10.0 mi SE 4.6 mph - N/A   Clear
8:13 PM 24.8 °F 20.5 °F 21.2 °F 86% 29.94 in 10.0 mi SE 3.5 mph - N/A   Clear
8:33 PM 26.6 °F - 21.2 °F 80% 29.94 in 10.0 mi Calm Calm - N/A   Clear
8:52 PM 26.6 °F - 23.0 °F 86% 29.93 in 10.0 mi Calm Calm - N/A   Clear
9:13 PM 24.8 °F 20.5 °F 21.2 °F 86% 29.92 in 10.0 mi SE 3.5 mph - N/A   Clear
9:32 PM 24.8 °F 20.5 °F 21.2 °F 86% 29.92 in 10.0 mi SSE 3.5 mph - N/A   Clear
9:53 PM 26.6 °F - 21.2 °F 80% 29.92 in 10.0 mi Calm Calm - N/A   Scattered Clouds
10:13 PM 26.6 °F 22.6 °F 23.0 °F 86% 29.92 in 10.0 mi ESE 3.5 mph - N/A   Mostly Cloudy
10:32 PM 26.6 °F 22.6 °F 23.0 °F 86% 29.91 in 7.0 mi ESE 3.5 mph - N/A   Mostly Cloudy
10:53 PM 28.4 °F 23.3 °F 24.8 °F 86% 29.90 in 10.0 mi ESE 4.6 mph - N/A   Mostly Cloudy
11:13 PM 28.4 °F 23.3 °F 24.8 °F 86% 29.89 in 10.0 mi ESE 4.6 mph - N/A   Scattered Clouds
11:32 PM 28.4 °F 22.2 °F 24.8 °F 86% 29.88 in 10.0 mi ESE 5.8 mph - N/A   Mostly Cloudy
11:53 PM 28.4 °F 22.2 °F 24.8 °F 86% 29.88 in 10.0 mi SE 5.8 mph - N/A   Overcast